XE2RCS-1 Weather Reports


time (UTC)temp
F
wind
direction
speed
knots
gust
knots
rain 1hr
in
rain 24hr
in
rain mn
in
humidity
%
barometer
mb
20260506185945 90 180 9.6 0.0 0.00 0.00 0.00 1010.0
20260506184944 89 180 9.6 0.0 0.00 0.00 0.00 1010.0
20260506183944 88 180 9.6 0.0 0.00 0.00 0.00 1010.0
20260506182943 88 180 9.6 0.0 0.00 0.00 0.00 1011.0
20260506181943 88 180 9.6 0.0 0.00 0.00 0.00 1011.0
20260506180942 87 180 9.6 0.0 0.00 0.00 0.00 1011.0
20260506175942 87 180 9.6 0.0 0.00 0.00 0.00 1011.0
20260506174941 87 180 9.6 0.0 0.00 0.00 0.00 1011.0
20260506173940 87 180 9.6 0.0 0.00 0.00 0.00 1011.0
20260506172940 87 180 9.6 0.0 0.00 0.00 0.00 1012.0
20260506171939 87 180 9.6 0.0 0.00 0.00 0.00 1012.0
20260506170938 87 180 9.6 0.0 0.00 0.00 0.00 1012.0
20260506165938 87 180 9.6 0.0 0.00 0.00 0.00 1012.0
20260506164937 86 180 9.6 0.0 0.00 0.00 0.00 1012.0
20260506163937 85 180 9.6 0.0 0.00 0.00 0.00 1012.0
20260506162936 84 180 9.6 0.0 0.00 0.00 0.00 1012.0
20260506161935 84 180 9.6 0.0 0.00 0.00 0.00 1012.0
20260506160935 84 180 9.6 0.0 0.00 0.00 0.00 1012.0
20260506155934 84 180 9.6 0.0 0.00 0.00 0.00 1012.0
20260506154933 84 180 9.6 0.0 0.00 0.00 0.00 1012.0
20260506153933 81 180 9.6 0.0 0.00 0.00 0.00 13 1012.0
20260506152932 77 180 9.6 0.0 0.00 0.00 0.00 21 1013.0
20260506151931 79 180 9.6 0.0 0.00 0.00 0.00 21 1013.0
20260506150931 81 180 9.6 0.0 0.00 0.00 0.00 1013.0
20260506145930 80 180 9.6 0.0 0.00 0.00 0.00 10 1013.0
20260506144929 80 180 9.6 0.0 0.00 0.00 0.00 10 1013.0
20260506143929 79 180 9.6 0.0 0.00 0.00 0.00 11 1013.0
20260506142928 78 180 9.6 0.0 0.00 0.00 0.00 11 1013.0
20260506141927 78 180 9.6 0.0 0.00 0.00 0.00 11 1013.0
20260506140927 77 180 9.6 0.0 0.00 0.00 0.00 13 1013.0
20260506135926 77 180 7.0 0.0 0.00 0.00 0.00 14 1013.0
20260506134926 77 180 7.0 0.0 0.00 0.00 0.00 14 1013.0
20260506133925 76 180 7.8 0.0 0.00 0.00 0.00 19 1013.0
20260506132924 73 180 7.8 0.0 0.00 0.00 0.00 21 1013.0
20260506131923 74 180 7.8 0.0 0.00 0.00 0.00 19 1013.0
20260506130923 74 180 7.8 0.0 0.00 0.00 0.00 19 1013.0
20260506125922 71 350 15.6 0.0 0.00 0.00 0.00 20 1013.0
20260506124922 71 350 15.6 0.0 0.00 0.00 0.00 20 1013.0
20260506123921 72 350 15.6 0.0 0.00 0.00 0.00 19 1013.0
20260506122920 72 350 15.6 0.0 0.00 0.00 0.00 18 1012.0
20260506121920 72 350 15.6 0.0 0.00 0.00 0.00 19 1012.0
20260506120919 69 350 15.6 0.0 0.00 0.00 0.00 24 1012.0
20260506115919 72 350 15.6 0.0 0.00 0.00 0.00 22 1012.0
20260506114918 72 350 15.6 0.0 0.00 0.00 0.00 22 1012.0
20260506113917 72 350 15.6 0.0 0.00 0.00 0.00 22 1012.0
20260506112917 75 350 15.6 0.0 0.00 0.00 0.00 14 1011.0
20260506111916 75 350 15.6 0.0 0.00 0.00 0.00 14 1011.0
20260506110915 74 350 15.6 0.0 0.00 0.00 0.00 22 1011.0
20260506105915 76 350 15.6 0.0 0.00 0.00 0.00 20 1011.0
20260506104914 76 350 15.6 0.0 0.00 0.00 0.00 20 1011.0
20260506103914 76 350 15.6 0.0 0.00 0.00 0.00 20 1011.0
20260506102913 77 350 15.6 0.0 0.00 0.00 0.00 13 1010.0
20260506101913 77 350 15.6 0.0 0.00 0.00 0.00 14 1010.0
20260506100912 77 350 15.6 0.0 0.00 0.00 0.00 14 1010.0
20260506095911 77 350 15.6 0.0 0.00 0.00 0.00 13 1010.0
20260506094911 77 350 15.6 0.0 0.00 0.00 0.00 13 1010.0
20260506093910 77 350 15.6 0.0 0.00 0.00 0.00 13 1010.0
20260506092909 77 350 15.6 0.0 0.00 0.00 0.00 13 1010.0
20260506091908 76 350 15.6 0.0 0.00 0.00 0.00 14 1010.0
20260506090908 76 350 15.6 0.0 0.00 0.00 0.00 14 1010.0
20260506085907 76 350 15.6 0.0 0.00 0.00 0.00 14 1010.0
20260506084906 75 350 15.6 0.0 0.00 0.00 0.00 15 1010.0
20260506083906 75 350 15.6 0.0 0.00 0.00 0.00 16 1010.0
20260506082905 75 350 15.6 0.0 0.00 0.00 0.00 16 1009.0
20260506081904 75 350 15.6 0.0 0.00 0.00 0.00 17 1009.0
20260506072901 75 350 15.6 0.0 0.00 0.00 0.00 21 1009.0
20260506071900 75 350 15.6 0.0 0.00 0.00 0.00 21 1009.0
20260506070900 75 350 15.6 0.0 0.00 0.00 0.00 21 1009.0
20260506061857 74 350 15.6 0.0 0.00 0.00 0.00 29 1009.0
20260506060856 74 350 15.6 0.0 0.00 0.00 0.00 30 1009.0
20260506050853 76 350 15.6 0.0 0.00 0.00 0.00 29 1008.0
20260506044851 77 350 15.6 0.0 0.00 0.00 0.00 28 1008.0
20260506043851 77 350 15.6 0.0 0.00 0.00 0.00 32 1008.0
20260506042850 77 350 15.6 0.0 0.00 0.00 0.00 31 1008.0
20260506041850 77 350 15.6 0.0 0.00 0.00 0.00 36 1008.0
20260506040849 77 350 15.6 0.0 0.00 0.00 0.00 43 1010.0
20260506035849 77 350 15.6 0.0 0.00 0.00 0.00 49 1009.0
20260506034848 77 350 15.6 0.0 0.00 0.00 0.00 49 1009.0
20260506033848 78 350 15.6 0.0 0.00 0.00 0.00 60 1009.0
20260506032847 79 350 15.6 0.0 0.00 0.00 0.00 46 1009.0
20260506031846 79 350 15.6 0.0 0.00 0.00 0.00 45 1009.0
20260506030846 79 350 15.6 0.0 0.00 0.00 0.00 44 1008.0
20260506025845 80 350 15.6 0.0 0.00 0.00 0.00 42 1008.0
20260506024845 83 350 15.6 0.0 0.00 0.00 0.00 28 1008.0
20260506023844 83 350 15.6 0.0 0.00 0.00 0.00 28 1008.0
20260506022844 85 350 15.6 0.0 0.00 0.00 0.00 23 1007.0
20260506021843 85 350 15.6 0.0 0.00 0.00 0.00 21 1007.0
20260506020842 85 350 15.6 0.0 0.00 0.00 0.00 21 1007.0
20260506015842 85 350 15.6 0.0 0.00 0.00 0.00 19 1007.0
20260506014841 86 350 15.6 0.0 0.00 0.00 0.00 18 1007.0
20260506013841 86 350 15.6 0.0 0.00 0.00 0.00 18 1007.0
20260506012840 87 350 15.6 0.0 0.00 0.00 0.00 10 1006.0
20260506011839 88 350 15.6 0.0 0.00 0.00 0.00 11 1006.0
20260506010839 89 350 15.6 0.0 0.00 0.00 0.00 13 1006.0
20260506005838 90 350 15.6 0.0 0.00 0.00 0.00 10 1006.0
20260506004837 90 350 15.6 0.0 0.00 0.00 0.00 10 1005.0
20260506003837 90 350 15.6 0.0 0.00 0.00 0.00 11 1005.0
20260506002836 91 350 15.6 0.0 0.00 0.00 0.00 11 1004.0
20260506001836 93 350 15.6 0.0 0.00 0.00 0.00 12 1004.0
20260506000835 93 350 15.6 0.0 0.00 0.00 0.00 12 1004.0
20260505235834 92 350 15.6 0.0 0.00 0.00 0.00 10 1004.0
20260505234834 93 350 15.6 0.0 0.00 0.00 0.00 10 1004.0
20260505233833 93 350 15.6 0.0 0.00 0.00 0.00 11 1004.0
20260505232833 93 350 15.6 0.0 0.00 0.00 0.00 11 1004.0
20260505231832 93 350 15.6 0.0 0.00 0.00 0.00 11 1004.0
20260505230831 93 350 15.6 0.0 0.00 0.00 0.00 12 1004.0
20260505225831 93 350 15.6 0.0 0.00 0.00 0.00 11 1004.0
20260505224830 94 350 15.6 0.0 0.00 0.00 0.00 11 1004.0
20260505223829 93 350 15.6 0.0 0.00 0.00 0.00 11 1004.0
20260505222829 93 350 15.6 0.0 0.00 0.00 0.00 12 1004.0
20260505221828 93 350 15.6 0.0 0.00 0.00 0.00 12 1004.0
20260505220827 94 350 15.6 0.0 0.00 0.00 0.00 11 1004.0
20260505215827 95 350 15.6 0.0 0.00 0.00 0.00 11 1004.0
20260505214826 95 350 15.6 0.0 0.00 0.00 0.00 11 1004.0
20260505213826 96 350 15.6 0.0 0.00 0.00 0.00 13 1004.0
20260505212825 93 350 15.6 0.0 0.00 0.00 0.00 12 1005.0
20260505211824 93 350 15.6 0.0 0.00 0.00 0.00 12 1005.0
20260505210824 93 350 15.6 0.0 0.00 0.00 0.00 12 1005.0
20260505205823 94 180 13.0 0.0 0.00 0.00 0.00 12 1005.0
20260505204822 93 180 13.0 0.0 0.00 0.00 0.00 12 1005.0
20260505203822 93 180 13.0 0.0 0.00 0.00 0.00 13 1005.0
20260505202821 93 180 13.0 0.0 0.00 0.00 0.00 13 1006.0
20260505201821 93 180 13.0 0.0 0.00 0.00 0.00 13 1006.0
20260505200820 93 180 13.0 0.0 0.00 0.00 0.00 13 1006.0
20260505195819 93 180 13.0 0.0 0.00 0.00 0.00 13 1006.0
20260505194819 92 180 13.0 0.0 0.00 0.00 0.00 14 1006.0
20260505192818 93 180 13.0 0.0 0.00 0.00 0.00 13 1007.0
20260505191817 93 180 13.0 0.0 0.00 0.00 0.00 12 1007.0
20260505190816 93 180 13.0 0.0 0.00 0.00 0.00 12 1007.0